DMSP 5D-2 F13 DEB, 40414

Orbit data source: Space-Track

DMSP 5D-2 F13 DEB, 40414 is space debris in SSO originally from a launch on Fri, 24 Mar 1995 UTC launched from the Air Force Western Test Range (AFWTR). Debris objects in space refer to the collection of defunct objects orbiting the Earth. Examples of debris include non-operational satellites, rocket bodies, and fragments generated from explosions, collisions, or faulty payload assembly.

Loading next visibility...
Identifier
40414, 1995-015AB
Orbit
SSO
Country
Flag of USUS
Related business
Manufacturer
Unknown
Mission
Spacecraft
Bus & Motor
Unknown
Mass
Unknown
Launch date (UTC)
1995-03-24 (31 years ago)
Launch vehicle
Unknown
Launch site
Air Force Western Test Range (AFWTR)
Object type
Payload
Rocket body
Debris
Shape & HBR
Unknown shape, 0.1 m
Radar Cross Section
Small (<0.1 m²)

Expand to show TLE details & history
Last TLE update: 11 hours ago

TLE from 11 hours ago
0 DMSP 5D-2 F13 DEB
1 40414U 95015AB  26253.55682193  .00001264  00000-0  47957-3 0  9998
2 40414  98.6221 281.2595 0011717  39.5578 320.6458 14.32792217599503
Epoch: 2026-09-10T13:21Z
TLE epoch observation values (Epoch: 2026-09-10T13:21:49.414Z)
Latitude
-0.00012°
Longitude
91.2108°
Altitude
778.863 km
Speed
7.468 km/s
True Right ascension
18h 45m 02s
True Declination
0° 00' 00"
Sunlit
Object was in daylight at epoch
Visualization orbit readout
Latitude
Unknown
Longitude
Unknown
Altitude
Unknown
Speed
Unknown
Apparent Right ascension
Unknown
Apparent Declination
Unknown
Sunlit
N/A
Visualization observer readout
Local Sidereal Time
16:39:18
Azimuth
Unknown
Elevation
Unknown
Doppler factor
Unknown
Orbital elements
Apogee altitude
787.937 km
Perigee altitude
771.163 km
Semi-major axis
7,157.687 km
Eccentricity
0.00117
Inclination
98.6221°
RAAN
281.2595°
Arg. of periapsis
39.5578°
True anomaly
320.56056°
Mean anomaly
320.6458°
Eccentric anomaly
320.60319°
Mean motion
3.58413 °/min
Orbital period
100.44 mins
BSTAR
0.00047957
Loading maneuver chart data...
Computing Atmospheric mass density...

Documentation

Showing up to 5 results
|